Date String (YYYY-MM-DD hh:mm:ss) UTC,Instrument flags,absolute air pressure of the measurement (hPa),sample flow rate (lpm),inlet stack bypass flow (lpm),air temperature of the measurement (°C),ambient temperature measured by the external sensor (°C),aerosol sample conditioner tube jacket temperature (°C),OPC LED temperature (°C),internal box temperature (°C),relative humidity of the measurement (%),span deviation,mass concentration of particles derived from Lorenz-Mie calculation of OPC scattering (μg/m³),mass concentration of particles derived from Lorenz-Mie calculation of OPC scattering (μg/m³),mass concentration of particles derived from Lorenz-Mie calculation of OPC scattering (μg/m³)
DateTimeUTC,F1_M11,P_M11,Q1_M11,Q2_M11,T1_M11,T2_M11,T3_M11,T4_M11,T5_M11,U1_M11,ZSPAN_M11,X2_M11,X0_M11,X1_M11
2024-05-20 15:00:00,SystemResetWarning,0827.6,5.01,000.00,025.0,024.0,000.0,033.5,026.7,024.7,0000.0,0004.25,0012.18,0003.25
2024-05-20 15:01:00,SystemResetWarning,0827.7,4.99,000.00,025.0,024.1,000.0,033.4,026.8,024.1,0000.0,0004.29,0011.67,0003.28
2024-05-20 15:02:00,SystemResetWarning,0827.6,4.99,000.00,025.1,024.2,000.0,033.4,026.9,024.4,0000.0,0004.30,0011.38,0003.30
2024-05-20 15:03:00,SystemResetWarning,0827.6,5.01,000.00,025.1,024.3,000.0,033.4,026.9,024.6,0000.0,0004.32,0011.45,0003.30
2024-05-20 15:04:00,SystemResetWarning,0827.6,5.01,000.00,025.1,024.4,000.0,033.4,026.9,023.7,0000.0,0004.36,0011.80,0003.32
2024-05-20 15:05:00,SystemResetWarning,0827.6,5.01,000.00,025.1,024.4,000.0,033.4,027.0,023.6,0000.0,0004.36,0012.19,0003.35
2024-05-20 15:06:00,SystemResetWarning,0827.6,5.00,000.00,025.2,024.5,000.0,033.4,027.0,023.5,0000.0,0004.31,0011.74,0003.36
2024-05-20 15:07:00,SystemResetWarning,0827.5,4.99,000.00,025.2,024.5,000.0,033.5,027.1,023.6,0000.0,0004.31,0011.52,0003.36
2024-05-20 15:08:00,SystemResetWarning,0827.6,4.99,000.00,025.2,024.6,000.0,033.5,027.1,023.5,0000.0,0004.30,0011.15,0003.36
2024-05-20 15:09:00,SystemResetWarning,0827.5,5.01,000.00,025.3,024.6,000.0,033.5,027.1,023.5,0000.0,0004.32,0010.81,0003.36
2024-05-20 15:10:00,SystemResetWarning,0827.6,5.00,000.00,025.3,024.7,000.0,033.5,027.1,023.7,0000.0,0004.34,0010.87,0003.38
2024-05-20 15:11:00,SystemResetWarning,0827.5,4.99,000.00,025.3,024.7,000.0,033.5,027.1,023.3,0000.0,0004.33,0010.73,0003.38
2024-05-20 15:12:00,SystemResetWarning,0827.4,4.99,000.00,025.4,024.7,000.0,033.5,027.2,023.0,0000.0,0004.36,0011.62,0003.37
2024-05-20 15:13:00,SystemResetWarning,0827.4,5.01,000.00,025.4,024.8,000.0,033.5,027.2,023.4,0000.0,0004.39,0012.33,0003.37
2024-05-20 15:14:00,SystemResetWarning,0827.4,5.00,000.00,025.4,024.8,000.0,033.6,027.3,023.1,0000.0,0004.39,0012.31,0003.38
2024-05-20 15:15:00,SystemResetWarning,0827.3,4.98,000.00,025.4,024.8,000.0,033.6,027.3,023.2,0000.0,0004.39,0012.23,0003.38
2024-05-20 15:16:00,SystemResetWarning,0827.4,5.01,000.00,025.5,024.9,000.0,033.6,027.3,023.2,0000.0,0004.41,0011.92,0003.37
2024-05-20 15:17:00,SystemResetWarning,0827.4,5.01,000.00,025.5,024.9,000.0,033.6,027.3,022.8,0000.0,0004.41,0011.91,0003.36
2024-05-20 15:18:00,SystemResetWarning,0827.4,5.00,000.00,025.5,024.9,000.0,033.6,027.3,023.0,0000.0,0004.38,0012.88,0003.36
2024-05-20 15:19:00,SystemResetWarning,0827.4,5.00,000.00,025.5,025.0,000.0,033.7,027.4,023.3,0000.0,0004.40,0012.96,0003.37
2024-05-20 15:20:00,SystemResetWarning,0827.4,5.01,000.00,025.6,025.0,000.0,033.7,027.4,022.9,0000.0,0004.42,0012.19,0003.37
2024-05-20 15:21:00,SystemResetWarning,0827.3,4.99,000.00,025.6,025.0,000.0,033.7,027.4,023.3,0000.0,0004.45,0012.15,0003.38
2024-05-20 15:22:00,SystemResetWarning,0827.3,4.99,000.00,025.6,025.0,000.0,033.7,027.4,023.0,0000.0,0004.47,0012.81,0003.38
2024-05-20 15:23:00,SystemResetWarning,0827.3,5.00,000.00,025.6,025.0,000.0,033.7,027.5,022.8,0000.0,0004.42,0012.96,0003.37
2024-05-20 15:24:00,SystemResetWarning,0827.3,5.01,000.00,025.7,025.1,000.0,033.8,027.5,022.9,0000.0,0004.42,0012.58,0003.37
2024-05-20 15:25:00,SystemResetWarning,0827.3,5.00,000.00,025.7,025.1,000.0,033.8,027.5,022.9,0000.0,0004.39,0012.68,0003.36
2024-05-20 15:26:00,SystemResetWarning,0827.3,4.99,000.00,025.7,025.1,000.0,033.8,027.5,022.7,0000.0,0004.35,0013.05,0003.35
2024-05-20 15:27:00,SystemResetWarning,0827.2,4.99,000.00,025.6,024.4,000.0,033.9,027.0,023.2,0000.0,0004.32,0013.23,0003.34
2024-05-20 15:28:00,SystemResetWarning,0827.1,5.00,000.00,025.2,022.4,000.0,033.9,026.0,023.7,0000.0,0004.34,0013.45,0003.35
2024-05-20 15:29:00,SystemResetWarning,0827.1,5.01,000.00,024.9,021.9,000.0,033.9,025.6,024.3,0000.0,0004.39,0012.80,0003.34
2024-05-20 15:30:00,SystemResetWarning,0827.1,5.01,000.00,024.8,022.2,000.0,033.7,025.7,024.8,0000.0,0004.39,0012.43,0003.34
2024-05-20 15:31:00,SystemResetWarning,0827.1,4.99,000.00,024.7,022.6,000.0,033.6,026.0,024.3,0000.0,0004.43,0014.32,0003.35
2024-05-20 15:32:00,SystemResetWarning,0827.1,5.00,000.00,024.7,022.9,000.0,033.5,026.2,024.1,0000.0,0004.45,0015.23,0003.36
2024-05-20 15:33:00,SystemResetWarning,0827.2,5.00,000.00,024.8,023.2,000.0,033.4,026.3,024.7,0000.0,0004.47,0015.15,0003.38
2024-05-20 15:34:00,SystemResetWarning,0827.1,5.01,000.00,024.8,023.4,000.0,033.4,026.4,024.4,0000.0,0004.48,0014.25,0003.38
2024-05-20 15:35:00,SystemResetWarning,0827.1,5.01,000.00,024.8,023.6,000.0,033.3,026.5,024.3,0000.0,0004.49,0014.43,0003.40
2024-05-20 15:36:00,SystemResetWarning,0827.1,5.01,000.00,024.9,023.8,000.0,033.3,026.6,024.8,0000.0,0004.51,0014.86,0003.42
2024-05-20 15:37:00,SystemResetWarning,0827.1,5.00,000.00,024.9,023.9,000.0,033.3,026.7,024.2,0000.0,0004.56,0015.14,0003.43
2024-05-20 15:38:00,SystemResetWarning,0827.1,5.00,000.00,024.9,024.1,000.0,033.3,026.7,024.5,0000.0,0004.59,0015.79,0003.45
2024-05-20 15:39:00,SystemResetWarning,0827.1,5.00,000.00,025.0,024.1,000.0,033.3,026.8,024.0,0000.0,0004.55,0015.55,0003.46
2024-05-20 15:40:00,SystemResetWarning,0827.0,5.00,000.00,025.0,024.2,000.0,033.3,026.8,024.1,0000.0,0004.53,0015.25,0003.47
2024-05-20 15:41:00,SystemResetWarning,0827.0,5.00,000.00,025.0,024.3,000.0,033.3,026.8,024.0,0000.0,0004.53,0015.06,0003.48
2024-05-20 15:42:00,SystemResetWarning,0827.0,5.00,000.00,025.1,024.4,000.0,033.3,026.9,024.4,0000.0,0004.49,0013.69,0003.48
2024-05-20 15:43:00,SystemResetWarning,0826.9,5.00,000.00,025.1,024.4,000.0,033.3,026.9,024.4,0000.0,0004.46,0013.36,0003.48
2024-05-20 15:44:00,SystemResetWarning,0826.9,4.99,000.00,025.1,024.5,000.0,033.3,027.0,024.3,0000.0,0004.43,0013.09,0003.49
2024-05-20 15:45:00,SystemResetWarning,0826.9,4.99,000.00,025.2,024.5,000.0,033.3,027.0,024.0,0000.0,0004.45,0013.77,0003.49
2024-05-20 15:46:00,SystemResetWarning,0826.9,5.00,000.00,025.2,024.6,000.0,033.4,027.0,023.9,0000.0,0004.44,0013.32,0003.51
2024-05-20 15:47:00,SystemResetWarning,0826.9,5.00,000.00,025.2,024.6,000.0,033.4,027.1,024.0,0000.0,0004.46,0012.92,0003.51
2024-05-20 15:48:00,SystemResetWarning,0826.9,5.00,000.00,025.3,024.7,000.0,033.4,027.1,023.6,0000.0,0004.48,0013.17,0003.53
2024-05-20 15:49:00,SystemResetWarning,0826.9,5.00,000.00,025.3,024.7,000.0,033.4,027.1,023.8,0000.0,0004.48,0014.05,0003.54
2024-05-20 15:50:00,SystemResetWarning,0826.8,5.01,000.00,025.3,024.8,000.0,033.4,027.2,024.0,0000.0,0004.51,0014.45,0003.57
2024-05-20 15:51:00,SystemResetWarning,0826.8,5.00,000.00,025.4,024.8,000.0,033.5,027.2,024.0,0000.0,0004.52,0014.98,0003.58
2024-05-20 15:52:00,SystemResetWarning,0826.8,4.99,000.00,025.4,024.8,000.0,033.5,027.2,023.9,0000.0,0004.56,0016.09,0003.59
2024-05-20 15:53:00,SystemResetWarning,0826.8,4.99,000.00,025.4,024.9,000.0,033.5,027.3,024.3,0000.0,0004.62,0016.48,0003.60
2024-05-20 15:54:00,SystemResetWarning,0826.8,5.00,000.00,025.5,024.9,000.0,033.5,027.3,023.6,0000.0,0004.63,0016.43,0003.62
2024-05-20 15:55:00,SystemResetWarning,0826.7,5.01,000.00,025.5,024.9,000.0,033.6,027.4,024.0,0000.0,0004.64,0016.63,0003.63
2024-05-20 15:56:00,SystemResetWarning,0826.8,5.01,000.00,025.5,024.9,000.0,033.6,027.4,023.8,0000.0,0004.68,0016.39,0003.65
2024-05-20 15:57:00,SystemResetWarning,0826.8,4.99,000.00,025.5,025.0,000.0,033.7,027.4,023.9,0000.0,0004.71,0016.91,0003.66
2024-05-20 15:58:00,SystemResetWarning,0826.8,4.99,000.00,025.5,025.0,000.0,033.7,027.4,023.4,0000.0,0004.72,0016.64,0003.66
2024-05-20 15:59:00,SystemResetWarning,0826.8,5.00,000.00,025.6,025.0,000.0,033.7,027.4,023.1,0000.0,0004.70,0017.41,0003.67
